Вернуться в каталог

DELTA 1 DEB

АктивенSSO
NORAD 14913·DEBRIS·🇺🇸 United States

Запущен Mar 5, 1978 с Vandenberg Space Force Base

Loading…

Ближайшие Пролёты (ближайшие 24 часа)

TLE

СвежийSource: Space-Track

Эпоха: Sep 14, 2026, 02:12 UTC

1 14913U 78026GN  26257.09224568  .00000587  00000-0  23052-3 0  9994
2 14913  98.7467 293.9101 0088754 268.0712 116.2529 14.30986894259390

Отслеживайте DELTA 1 DEB в реальном времени с AllMySat

Download on the App Store